Regional Weather Roundup
Issued by NWS

Home | Current Version | Previous Version | Text Only | Print | Product List | Glossary On
Versions: 1 2 3 4 5 6 7 8 9 10 11 12 13 14 15 16 17 18 19 20 21 22 23 24 25 26 27
000
ASUS45 KBOI 212210
RWRID

IDAHO REGIONAL WEATHER ROUNDUP
NATIONAL WEATHER SERVICE BOISE ID
300 PM MST TUE FEB 21 2017

NOTE: "FAIR" INDICATES FEW OR NO CLOUDS BELOW 12000 FEET
WITH NO SIGNIFICANT WEATHER AND/OR OBSTRUCTIONS TO VISIBILITY

IDZ012-014-212300-
SOUTHWEST IDAHO


CITY           SKY/WX    TMP DP  RH WIND       PRES   REMARKS
BOISE          PTSUNNY   54  26  34 W21       29.90S
CALDWELL       MOSUNNY   56  26  31 SW29G37   29.89R
MOUNTAIN HOME  PTSUNNY   53  31  44 W20G25    29.92S
$$

IDZ016-017-212300-
SOUTHCENTRAL IDAHO


CITY           SKY/WX    TMP DP  RH WIND       PRES   REMARKS
BURLEY         LGT RAIN  45  31  58 W26G36    29.94F
JEROME           N/A    N/A N/A N/A MISG      29.94R
TWIN FALLS     CLOUDY    44  29  55 SW20G32   29.95F
$$

IDZ019>023-212300-
SOUTHEAST IDAHO


CITY           SKY/WX    TMP DP  RH WIND       PRES   REMARKS
IDAHO FALLS    PTSUNNY   38  33  82 SW21      29.91S WCI  28
POCATELLO      CLOUDY    39  33  79 SW15      29.97R WCI  31
REXBURG        CLOUDY    40  31  70 SW20G30   29.85F WCI  30
$$

IDZ006-010-011-018-031-032-212300-
CENTRAL IDAHO MOUNTAINS


CITY           SKY/WX    TMP DP  RH WIND       PRES   REMARKS
MCCALL         CLOUDY    37  25  61 S24G32    29.80F WCI  26
HAILEY         PTSUNNY   39  28  65 S8        29.89F WCI  34
STANLEY          N/A     32  26  78 SE6       29.85R WCI  26
SALMON         PTSUNNY   45  32  61 S17       29.77S
CHALLIS        LGT SNOW  35  32  88 NW8       29.83R FOG     WCI  29
$$

IDZ002-004-006-007-026-212300-
NORTHERN IDAHO


CITY           SKY/WX    TMP DP  RH WIND       PRES   REMARKS
LEWISTON       LGT RAIN  40  35  83 NW16G24   29.80R WCI  31
LOWELL           N/A     39  36  89 VRB3      29.73S
COEUR D`ALENE  LGT RAIN  36  34  92 W3        29.75R FOG
MULLAN PASS    SNOW      29  28  96 VRB5      29.61R VSB 1/4 WCI  24
$$




USA.gov is the U.S. government's official web portal to all federal, state and local government web resources and services.